Flag for Uruguay Weather past 2 weeks in Maldonado, Uruguay

Now
70 °F

Sunny.


Feels Like: 70 °F
Forecast: 47 / 69 °F
Wind: 10 mph from Northeast

Location: Capitan Corbeta

Current Time: Aug 28, 2015 at 3:07:42 PM

Latest Report: Aug 28, 2015 at 1:00 PM


Visibility: 10 mi

Pressure: 30.01 "Hg

Humidity: 33%

Dew point: 39 °F

Location of MaldonadoLocation

Historic Weather in Maldonado — Graph

°F

Maldonado temperature yesterday

Maximum temperature yesterday: 59 °F (at 11:00 AM)
Minimum temperature yesterday: 50 °F (at 9:00 PM)
Average temperature yesterday: 55 °F

Past Weeks' High & Low Weather Summary

 TemperatureHumidityPressure
High73 °F (Aug 22, 1:00 PM)100% (Aug 13, 1:00 PM)30.33 "Hg (Aug 13, 1:00 PM)
Low41 °F (Aug 16, 5:00 AM)33% (Aug 28, 1:00 PM)29.65 "Hg (Aug 22, 3:00 PM)
Average55 °F82%30.02 "Hg
* Reported Aug 13 1:00 PM — Aug 28 1:00 PM, Maldonado, Weather by CustomWeather, © 2015

Note: Actual official high and low records may vary slightly from our data, if they occured in-between our weather recording intervals... More about our weather records

Advertising

Maldonado weather history for previous 24 hours

 ConditionsComfort  
Time TempWeatherWind HumidityBarometerVisibility
1:00 PM
Fri, Aug 28
70 °FSunny.10 mph33%30.01 "Hg10 mi
12:00 PM66 °FSunny.13 mph37%30.04 "Hg10 mi
11:00 AM63 °FSunny.13 mph52%30.07 "Hg10 mi
10:00 AM55 °FSunny.13 mph67%30.07 "Hg10 mi
9:00 AM54 °FSunny.10 mph72%30.07 "Hg10 mi
8:00 AM50 °FSunny.10 mph76%30.07 "Hg10 mi
7:00 AM48 °FSunny.9 mph76%30.07 "Hg10 mi
6:00 AM48 °FClear.12 mph76%30.07 "Hg10 mi
5:00 AM48 °FClear.10 mph76%30.04 "Hg10 mi
4:00 AM48 °FClear.10 mph76%30.04 "Hg10 mi
3:00 AM46 °FClear.10 mph76%30.04 "Hg10 mi
2:00 AM48 °FClear.10 mph76%30.04 "Hg10 mi
1:00 AM50 °FClear.12 mph76%30.04 "Hg10 mi
12:00 AM48 °FClear.12 mph82%30.04 "Hg10 mi
11:00 PM
Thu, Aug 27
50 °FClear.12 mph82%30.04 "Hg10 mi
10:00 PM50 °FClear.10 mph88%30.01 "Hg10 mi
9:00 PM50 °FClear.10 mph82%30.01 "Hg10 mi
8:00 PM52 °FClear.10 mph82%30.01 "Hg10 mi
7:00 PM52 °FClear.9 mph82%30.01 "Hg10 mi
6:00 PM54 °FClear.12 mph77%29.98 "Hg10 mi
5:00 PM57 °FPassing clouds.23 mph67%29.95 "HgN/A
4:00 PM57 °FPassing clouds.23 mph63%29.95 "HgN/A
3:00 PM57 °FScattered clouds.23 mph67%29.95 "HgN/A
Weather by CustomWeather, © 2015

See weather overviewHow to use our weather pages